Location: Newark
(58.8333°N, 23.5833°E)
Time: 22:56:51
(UTC+00:00)

S-56A Canister/Altair - Pass Details

Date: 01 December 2019
Orbit: 633 x 2499 km, 38.9° (Epoch: 10 December)

Event Time Altitude Azimuth Distance (km) Brightness Sun altitude
Rises 14:59:36 0° 256° (WSW) 5,867 13.9 -9.4°
Reaches altitude 10° 15:04:47 10° 244° (WSW) 4,602 13.1 -10.0°
Maximum altitude 15:13:15 23° 200° (SSW) 3,146 11.2 -11.0°
Drops below altitude 10° 15:19:53 10° 154° (SSE) 3,499 10.9 -11.8°
Sets 15:23:10 0° 139° (SE) 4,184 11.1 -12.2°
